N5COP-13 Weather Reports


time (UTC)temp
F
wind
direction
speed
knots
gust
knots
rain 1hr
in
rain 24hr
in
rain mn
in
humidity
%
barometer
mb
20260507134732 42 287 11.3 11.3 0.00 0.00 0.00 93 1022.1
20260507134228 42 288 8.7 13.9 0.00 0.00 0.00 93 1022.1
20260507133724 42 286 8.7 11.3 0.00 0.00 0.00 93 1022.1
20260507133221 41 269 11.3 13.0 0.00 0.00 0.00 93 1022.2
20260507132719 41 300 9.6 12.2 0.00 0.00 0.00 93 1022.1
20260507132215 41 276 7.0 12.2 0.00 0.00 0.00 93 1022.1
20260507131712 41 268 7.0 13.0 0.00 0.00 0.00 93 1022.0
20260507131210 41 279 9.6 10.4 0.00 0.00 0.00 93 1022.2
20260507130706 41 269 8.7 13.0 0.00 0.00 0.00 93 1022.2
20260507130204 41 279 7.8 10.4 0.00 0.00 0.00 93 1022.2
20260507125702 40 299 9.6 11.3 0.00 0.00 0.00 92 1022.0
20260507125200 41 302 10.4 12.2 0.00 0.00 0.00 92 1022.1
20260507124656 40 288 6.1 11.3 0.00 0.00 0.00 92 1022.2
20260507124153 40 294 7.8 10.4 0.00 0.00 0.00 92 1022.0
20260507123652 40 298 9.6 10.4 0.00 0.00 0.00 92 1022.0
20260507123148 40 290 8.7 12.2 0.00 0.00 0.00 92 1021.6
20260507122644 40 289 4.3 9.6 0.00 0.00 0.00 92 1021.9
20260507122139 40 293 7.0 11.3 0.00 0.00 0.00 92 1021.6
20260507121636 40 307 9.6 11.3 0.00 0.00 0.00 92 1021.7
20260507121132 39 298 8.7 11.3 0.00 0.00 0.00 92 1021.7
20260507120628 39 311 7.0 9.6 0.00 0.00 0.00 91 1021.5
20260507120124 39 323 9.6 13.0 0.00 0.00 0.00 91 1021.7
20260507115621 39 293 8.7 13.9 0.00 0.00 0.00 91 1021.6
20260507115111 38 327 7.0 9.6 0.00 0.00 0.00 91 1021.7
20260507114607 37 304 5.2 5.2 0.00 0.00 0.00 91 1021.7
20260507114105 37 315 3.5 5.2 0.00 0.00 0.00 91 1021.6
20260507113602 35 299 5.2 5.2 0.00 0.00 0.00 90 1021.7
20260507113059 34 305 3.5 3.5 0.00 0.00 0.00 90 1021.8
20260507112557 35 263 2.6 3.5 0.00 0.00 0.00 90 1021.6
20260507112053 35 266 1.7 2.6 0.00 0.00 0.00 90 1021.5
20260507111550 35 263 1.7 2.6 0.00 0.00 0.00 89 1021.5
20260507111047 35 251 1.7 2.6 0.00 0.00 0.00 89 1021.7
20260507110543 35 318 1.7 2.6 0.00 0.00 0.00 89 1021.6
20260507110040 35 300 0.9 2.6 0.00 0.00 0.00 89 1021.7
20260507105537 36 304 1.7 3.5 0.00 0.00 0.00 89 1021.7
20260507105033 36 322 3.5 3.5 0.00 0.00 0.00 89 1021.8
20260507104531 36 316 1.7 3.5 0.00 0.00 0.00 89 1021.6
20260507104027 36 302 2.6 3.5 0.00 0.00 0.00 88 1021.5
20260507103523 36 338 3.5 3.5 0.00 0.00 0.00 88 1021.7
20260507103020 36 335 3.5 5.2 0.00 0.00 0.00 88 1021.5
20260507102516 36 326 2.6 3.5 0.00 0.00 0.00 88 1021.7
20260507102012 36 311 1.7 1.7 0.00 0.00 0.00 88 1021.8
20260507101508 37 333 0.9 2.6 0.00 0.00 0.00 88 1021.7
20260507101004 37 357 1.7 3.5 0.00 0.00 0.00 87 1021.8
20260507100456 37 336 2.6 4.3 0.00 0.00 0.00 87 1021.8
20260507095954 37 327 4.3 5.2 0.00 0.00 0.00 87 1021.7
20260507095452 37 330 5.2 7.8 0.00 0.00 0.00 87 1021.8
20260507094948 36 328 6.1 7.8 0.00 0.00 0.00 86 1021.9
20260507094444 36 229 1.7 2.6 0.00 0.00 0.00 86 1021.6
20260507093941 36 261 1.7 3.5 0.00 0.00 0.00 86 1021.6
20260507093439 36 243 1.7 1.7 0.00 0.00 0.00 85 1021.6
20260507092937 37 262 1.7 4.3 0.00 0.00 0.00 86 1021.7
20260507092433 37 265 2.6 2.6 0.00 0.00 0.00 85 1021.5
20260507091930 37 283 0.0 1.7 0.00 0.00 0.00 85 1021.6
20260507091427 38 337 1.7 1.7 0.00 0.00 0.00 84 1021.5
20260507090922 39 296 1.7 2.6 0.00 0.00 0.00 84 1021.5
20260507090419 39 358 0.9 1.7 0.00 0.00 0.00 84 1021.6
20260507085915 39 347 1.7 2.6 0.00 0.00 0.00 84 1021.6
20260507085412 39 4 1.7 1.7 0.00 0.00 0.00 83 1021.6
20260507084910 40 3 1.7 2.6 0.00 0.00 0.00 83 1021.3
20260507084406 40 6 2.6 3.5 0.00 0.00 0.00 83 1021.3
20260507083904 40 52 1.7 3.5 0.00 0.00 0.00 82 1021.2
20260507083400 41 63 1.7 3.5 0.00 0.00 0.00 82 1021.3
20260507082856 41 28 4.3 5.2 0.00 0.00 0.00 81 1021.2
20260507082352 41 19 3.5 5.2 0.00 0.00 0.00 81 1021.6
20260507081849 42 32 3.5 5.2 0.00 0.00 0.00 81 1021.3
20260507081345 42 29 4.3 4.3 0.00 0.00 0.00 80 1021.5
20260507080842 43 116 4.3 5.2 0.00 0.00 0.00 80 1021.3
20260507080338 43 89 4.3 5.2 0.00 0.00 0.00 80 1021.2
20260507075834 43 94 4.3 7.0 0.00 0.00 0.00 79 1021.0
20260507075330 43 76 5.2 6.1 0.00 0.00 0.00 78 1021.2
20260507074826 43 79 5.2 7.8 0.00 0.00 0.00 78 1021.3
20260507074324 44 63 5.2 9.6 0.00 0.00 0.00 77 1021.5
20260507073821 44 107 11.3 14.8 0.00 0.00 0.00 76 1020.9
20260507073318 44 93 4.3 7.8 0.00 0.00 0.00 75 1021.7
20260507072815 44 10 5.2 7.8 0.00 0.00 0.00 74 1022.1
20260507072312 44 27 6.1 9.6 0.00 0.00 0.00 74 1022.1
20260507071810 44 358 4.3 7.8 0.00 0.00 0.00 73 1022.3
20260507071306 44 11 5.2 9.6 0.00 0.00 0.00 72 1022.5
20260507070803 44 11 7.8 11.3 0.00 0.00 0.00 72 1022.3
20260507070300 45 15 4.3 10.4 0.00 0.00 0.00 71 1022.6
20260507065757 45 11 7.8 11.3 0.00 0.00 0.00 71 1022.2
20260507065253 45 24 6.1 10.4 0.00 0.00 0.00 70 1022.1
20260507064751 45 33 5.2 9.6 0.00 0.00 0.00 70 1022.2
20260507064249 45 13 5.2 7.8 0.00 0.00 0.00 70 1022.6
20260507063747 45 13 7.0 7.0 0.00 0.00 0.00 69 1023.0
20260507063243 46 16 6.1 7.8 0.00 0.00 0.00 69 1022.7
20260507062740 46 13 3.5 5.2 0.00 0.00 0.00 69 1022.7
20260507062237 46 4 2.6 7.8 0.00 0.00 0.00 69 1022.7
20260507061736 46 11 5.2 7.8 0.00 0.00 0.00 69 1022.7
20260507061233 46 19 5.2 7.8 0.00 0.00 0.00 69 1022.2
20260507060731 46 19 7.0 7.8 0.00 0.00 0.00 68 1022.3
20260507060227 46 36 6.1 7.0 0.00 0.00 0.00 68 1022.2
20260507055724 46 38 7.8 9.6 0.00 0.00 0.00 67 1022.2
20260507055219 46 41 8.7 11.3 0.00 0.00 0.00 67 1021.9
20260507054715 46 30 7.8 9.6 0.00 0.00 0.00 67 1021.8
20260507054213 46 66 8.7 11.3 0.00 0.00 0.00 66 1021.9
20260507053710 46 24 4.3 11.3 0.00 0.00 0.00 66 1021.5
20260507053208 46 33 6.1 9.6 0.00 0.00 0.00 66 1021.6
20260507052706 46 38 8.7 13.0 0.00 0.00 0.00 66 1021.6
20260507052202 46 41 7.0 13.0 0.00 0.00 0.00 66 1021.8
20260507051700 46 18 6.1 13.0 0.00 0.00 0.00 66 1021.9
20260507051156 46 29 4.3 12.2 0.00 0.00 0.00 65 1021.6
20260507050653 46 37 6.1 11.3 0.00 0.00 0.00 65 1021.6
20260507050150 46 43 7.8 15.6 0.00 0.00 0.00 65 1021.5
20260507045647 46 25 7.8 16.5 0.00 0.00 0.00 64 1021.6
20260507045144 47 9 11.3 20.0 0.00 0.00 0.00 63 1021.2
20260507044641 47 36 13.0 16.5 0.00 0.00 0.00 62 1021.3
20260507044137 47 27 11.3 18.2 0.00 0.00 0.00 62 1021.3
20260507043633 47 24 9.6 14.8 0.00 0.00 0.00 63 1021.3
20260507043131 47 22 14.8 15.6 0.00 0.00 0.00 63 1021.5
20260507042627 47 12 10.4 15.6 0.00 0.00 0.00 63 1021.5
20260507042121 47 31 8.7 13.9 0.00 0.00 0.00 62 1021.5
20260507041619 47 27 11.3 15.6 0.00 0.00 0.00 62 1021.2
20260507041116 47 33 8.7 20.0 0.00 0.00 0.00 62 1021.2
20260507040612 47 29 11.3 19.1 0.00 0.00 0.00 62 1021.0
20260507040103 47 39 9.6 13.9 0.00 0.00 0.00 61 1021.0
20260507035559 48 43 13.0 21.7 0.00 0.00 0.00 61 1020.6
20260507035055 48 39 11.3 21.7 0.00 0.00 0.00 61 1020.6
20260507034552 48 31 9.6 17.4 0.00 0.00 0.00 61 1020.8
20260507034050 48 26 9.6 21.7 0.00 0.00 0.00 60 1020.6
20260507033548 49 8 12.2 18.2 0.00 0.00 0.00 60 1020.7
20260507033045 49 18 10.4 20.0 0.00 0.00 0.00 60 1020.6
20260507032542 49 28 12.2 18.2 0.00 0.00 0.00 60 1020.6
20260507032038 50 23 9.6 15.6 0.00 0.00 0.00 61 1020.3
20260507031535 50 25 10.4 16.5 0.00 0.00 0.00 61 1020.7
20260507031032 49 20 13.0 13.9 0.00 0.00 0.00 61 1020.3
20260507030528 50 24 8.7 18.2 0.00 0.00 0.00 61 1020.4
20260507030027 50 15 13.0 17.4 0.00 0.00 0.00 60 1019.9
20260507025523 51 28 7.8 19.1 0.00 0.00 0.00 58 1019.9
20260507025021 52 36 16.5 19.1 0.00 0.00 0.00 56 1020.0
20260507024518 53 13 15.6 22.6 0.00 0.00 0.00 53 1019.6
20260507024015 53 21 13.9 19.1 0.00 0.00 0.00 53 1019.3
20260507023511 53 29 8.7 18.2 0.00 0.00 0.00 53 1019.3
20260507023009 54 15 9.6 17.4 0.00 0.00 0.00 52 1019.2
20260507022505 54 17 8.7 18.2 0.00 0.00 0.00 52 1019.1
20260507022000 55 7 13.0 14.8 0.00 0.00 0.00 52 1019.1
20260507021456 55 32 9.6 13.0 0.00 0.00 0.00 51 1018.5
20260507020953 55 29 7.8 13.0 0.00 0.00 0.00 51 1018.4
20260507020450 55 51 9.6 13.9 0.00 0.00 0.00 51 1018.4
20260507015947 55 11 9.6 15.6 0.00 0.00 0.00 51 1018.1
20260507015446 55 25 9.6 16.5 0.00 0.00 0.00 51 1017.9
20260507014942 55 44 4.3 11.3 0.00 0.00 0.00 51 1017.8
20260507014439 55 42 6.1 8.7 0.00 0.00 0.00 51 1017.8
20260507013935 55 70 4.3 9.6 0.00 0.00 0.00 50 1017.4
20260507013431 55 76 9.6 11.3 0.00 0.00 0.00 50 1017.2
20260507012924 55 73 5.2 13.9 0.00 0.00 0.00 50 1016.8
20260507012420 56 81 8.7 14.8 0.00 0.00 0.00 49 1016.5
20260507011917 56 87 9.6 14.8 0.00 0.00 0.00 49 1016.3
20260507011414 56 76 15.6 17.4 0.00 0.00 0.00 49 1016.1
20260507010914 56 86 13.0 19.1 0.00 0.00 0.00 49 1016.1
20260507010409 57 81 14.8 20.0 0.00 0.00 0.00 49 1016.1
20260507005907 57 85 13.9 20.9 0.00 0.00 0.00 48 1015.8
20260507005403 57 85 16.5 20.0 0.00 0.00 0.00 48 1015.6
20260507004900 58 101 19.1 23.5 0.00 0.00 0.00 47 1015.9
20260507004357 58 80 22.6 26.1 0.00 0.00 0.00 46 1015.6
20260507003854 59 86 18.2 26.9 0.00 0.00 0.00 46 1015.8
20260507003349 59 95 16.5 22.6 0.00 0.00 0.00 46 1015.3
20260507002845 59 89 20.0 20.9 0.00 0.00 0.00 46 1015.3
20260507002341 59 106 16.5 22.6 0.00 0.00 0.00 46 1015.2
20260507001839 59 99 16.5 26.1 0.00 0.00 0.00 46 1015.3
20260507001335 59 85 20.9 25.2 0.00 0.00 0.00 45 1015.0
20260507000832 60 79 22.6 25.2 0.00 0.00 0.00 44 1015.0
20260507000328 60 95 14.8 26.9 0.00 0.00 0.00 45 1014.7
20260506235824 60 78 20.9 24.3 0.00 0.00 0.00 45 1014.6
20260506235320 60 88 19.1 25.2 0.00 0.00 0.00 45 1014.9
20260506234817 60 94 22.6 26.1 0.00 0.00 0.00 44 1014.7
20260506234315 60 87 24.3 32.2 0.00 0.00 0.00 44 1014.7
20260506233812 61 84 18.2 27.8 0.00 0.00 0.00 43 1014.5
20260506233308 61 80 18.2 21.7 0.00 0.00 0.00 44 1014.5
20260506232805 61 82 20.9 26.1 0.00 0.00 0.00 43 1014.6
20260506232259 61 84 17.4 25.2 0.00 0.00 0.00 44 1014.7
20260506231751 61 75 20.0 24.3 0.00 0.00 0.00 43 1014.9
20260506231249 62 94 20.9 30.4 0.00 0.00 0.00 43 1014.6
20260506230746 61 76 20.0 24.3 0.00 0.00 0.00 43 1014.6
20260506230242 62 88 18.2 26.1 0.00 0.00 0.00 42 1014.5
20260506225734 62 89 16.5 21.7 0.00 0.00 0.00 43 1014.5
20260506225231 62 88 20.0 29.5 0.00 0.00 0.00 43 1014.5
20260506224727 62 103 19.1 26.9 0.00 0.00 0.00 43 1014.5
20260506224225 62 99 16.5 25.2 0.00 0.00 0.00 42 1014.6
20260506223721 62 79 16.5 20.9 0.00 0.00 0.00 42 1014.7
20260506223216 63 87 16.5 20.0 0.00 0.00 0.00 42 1014.7
20260506222714 62 81 18.2 25.2 0.00 0.00 0.00 42 1015.0
20260506222209 63 66 13.9 18.2 0.00 0.00 0.00 41 1014.9
20260506221707 63 83 19.1 23.5 0.00 0.00 0.00 41 1014.6
20260506221205 63 80 14.8 22.6 0.00 0.00 0.00 41 1014.7
20260506220702 63 77 14.8 24.3 0.00 0.00 0.00 41 1014.6
20260506220157 63 76 19.1 29.5 0.00 0.00 0.00 41 1014.6
20260506215654 63 92 20.0 29.5 0.00 0.00 0.00 41 1014.6
20260506215149 63 77 16.5 26.1 0.00 0.00 0.00 41 1014.9
20260506214646 63 77 14.8 26.9 0.00 0.00 0.00 41 1014.9
20260506214143 64 83 16.5 24.3 0.00 0.00 0.00 40 1014.7
20260506213642 64 80 11.3 24.3 0.00 0.00 0.00 40 1014.9
20260506213139 62 82 18.2 23.5 0.00 0.00 0.00 42 1014.7
20260506212636 63 84 24.3 26.1 0.00 0.00 0.00 39 1014.9
20260506212131 66 99 20.0 26.9 0.00 0.00 0.00 39 1014.9
20260506211627 64 89 12.2 20.0 0.00 0.00 0.00 40 1014.9
20260506211124 63 63 7.8 23.5 0.00 0.00 0.00 40 1014.9
20260506210621 63 65 9.6 24.3 0.00 0.00 0.00 41 1015.1
20260506210117 64 89 15.6 26.1 0.00 0.00 0.00 39 1014.9
20260506205614 64 78 10.4 19.1 0.00 0.00 0.00 39 1014.9
20260506205109 64 74 8.7 13.9 0.00 0.00 0.00 39 1014.9
20260506204607 64 83 13.0 20.0 0.00 0.00 0.00 39 1015.0
20260506204104 64 82 15.6 19.1 0.00 0.00 0.00 39 1014.9
20260506203602 64 109 15.6 21.7 0.00 0.00 0.00 39 1015.3
20260506203058 65 136 10.4 21.7 0.00 0.00 0.00 39 1015.2
20260506202556 65 98 7.0 14.8 0.00 0.00 0.00 39 1015.1
20260506202052 65 79 11.3 16.5 0.00 0.00 0.00 40 1015.1
20260506201550 64 110 9.6 15.6 0.00 0.00 0.00 41 1015.2
20260506201046 62 74 10.4 15.6 0.00 0.00 0.00 42 1015.1
20260506200542 62 96 6.1 19.1 0.00 0.00 0.00 41 1015.3
20260506200039 62 108 13.0 18.2 0.00 0.00 0.00 41 1015.2
20260506195536 63 36 3.5 12.2 0.00 0.00 0.00 40 1015.1
20260506195032 64 59 1.7 16.5 0.00 0.00 0.00 39 1015.2
20260506194530 64 84 11.3 20.0 0.00 0.00 0.00 40 1015.1
20260506194026 64 92 12.2 15.6 0.00 0.00 0.00 41 1015.3
20260506193524 63 190 5.2 11.3 0.00 0.00 0.00 41 1015.5
20260506193021 62 82 9.6 13.0 0.00 0.00 0.00 43 1015.3
20260506192518 62 131 9.6 22.6 0.00 0.00 0.00 42 1015.4
20260506192013 63 192 7.0 9.6 0.00 0.00 0.00 41 1015.4
20260506191510 63 30 7.0 10.4 0.00 0.00 0.00 42 1015.8
20260506191007 62 344 3.5 4.3 0.00 0.00 0.00 44 1015.5
20260506190504 60 105 7.0 13.0 0.00 0.00 0.00 44 1016.0
20260506190000 61 108 13.9 15.6 0.00 0.00 0.00 44 1016.1
20260506185457 60 84 15.6 19.1 0.00 0.00 0.00 44 1016.0
20260506184954 60 79 10.4 13.9 0.00 0.00 0.00 45 1016.1
20260506184452 60 100 13.9 17.4 0.00 0.00 0.00 44 1016.2
20260506183949 62 39 4.3 9.6 0.00 0.00 0.00 44 1016.3
20260506183444 61 82 1.7 15.6 0.00 0.00 0.00 46 1016.0
20260506182941 60 195 4.3 8.7 0.00 0.00 0.00 46 1016.2
20260506182439 60 98 9.6 16.5 0.00 0.00 0.00 45 1016.5
20260506181936 61 133 13.0 22.6 0.00 0.00 0.00 46 1016.3
20260506181433 60 127 6.1 7.0 0.00 0.00 0.00 47 1016.5
20260506180930 59 110 9.6 13.0 0.00 0.00 0.00 48 1016.9
20260506180426 57 126 7.8 15.6 0.00 0.00 0.00 48 1016.8
20260506175918 59 87 6.1 13.9 0.00 0.00 0.00 47 1016.8
20260506175414 58 70 10.4 21.7 0.00 0.00 0.00 49 1016.8
20260506174911 57 116 20.0 20.0 0.00 0.00 0.00 49 1016.8
20260506174409 59 122 12.2 18.2 0.00 0.00 0.00 49 1017.2
20260506173906 57 126 7.8 20.0 0.00 0.00 0.00 49 1017.0
20260506173403 58 112 2.6 13.0 0.00 0.00 0.00 50 1016.8
20260506172900 57 113 8.7 14.8 0.00 0.00 0.00 50 1017.2
20260506172356 57 192 7.0 10.4 0.00 0.00 0.00 50 1017.0
20260506171854 58 74 10.4 13.9 0.00 0.00 0.00 50 1017.1
20260506171350 57 92 7.0 7.8 0.00 0.00 0.00 52 1017.1
20260506170848 55 113 7.8 8.7 0.00 0.00 0.00 51 1017.1
20260506170343 56 115 12.2 20.0 0.00 0.00 0.00 51 1017.0
20260506165838 57 127 4.3 7.8 0.00 0.00 0.00 52 1017.0
20260506165335 56 107 4.3 13.0 0.00 0.00 0.00 53 1017.1
20260506164831 55 114 3.5 8.7 0.00 0.00 0.00 54 1017.1
20260506164328 55 110 14.8 18.2 0.00 0.00 0.00 54 1017.1
20260506163825 55 77 6.1 12.2 0.00 0.00 0.00 55 1017.2
20260506163320 53 139 4.3 10.4 0.00 0.00 0.00 55 1017.1
20260506162815 54 155 6.1 13.0 0.00 0.00 0.00 55 1016.8
20260506162313 53 153 3.5 10.4 0.00 0.00 0.00 56 1017.0
20260506161805 53 111 8.7 9.6 0.00 0.00 0.00 57 1017.0
20260506161302 53 139 12.2 13.9 0.00 0.00 0.00 58 1016.9
20260506160800 52 100 5.2 12.2 0.00 0.00 0.00 58 1017.0
20260506160256 52 101 10.4 15.6 0.00 0.00 0.00 58 1017.0
20260506155755 52 75 10.4 13.0 0.00 0.00 0.00 58 1016.8
20260506155251 52 106 5.2 13.9 0.00 0.00 0.00 58 1016.5
20260506153358 51 76 7.8 14.8 0.00 0.00 0.00 62 1016.5
20260506152855 50 83 7.8 14.8 0.00 0.00 0.00 62 1016.8
20260506152352 50 86 8.7 18.2 0.00 0.00 0.00 62 1016.6
20260506151851 50 114 1.7 14.8 0.00 0.00 0.00 64 1016.6
20260506151347 50 111 8.7 16.5 0.00 0.00 0.00 65 1016.5
20260506150844 49 75 7.0 13.0 0.00 0.00 0.00 66 1016.6
20260506150341 48 122 8.7 15.6 0.00 0.00 0.00 67 1016.5
20260506145838 48 110 17.4 18.2 0.00 0.00 0.00 67 1016.5
20260506145334 48 140 3.5 10.4 0.00 0.00 0.00 69 1016.4
20260506144832 48 91 6.1 9.6 0.00 0.00 0.00 70 1016.5
20260506144328 46 122 9.6 14.8 0.00 0.00 0.00 71 1016.2
20260506143827 47 110 15.6 15.6 0.00 0.00 0.00 71 1016.4
20260506143323 46 114 10.4 15.6 0.00 0.00 0.00 72 1016.2
20260506142821 46 130 9.6 15.6 0.00 0.00 0.00 72 1016.4
20260506142319 46 130 13.0 17.4 0.00 0.00 0.00 73 1016.1
20260506141817 45 112 12.2 18.2 0.00 0.00 0.00 74 1016.0
20260506141315 44 111 16.5 21.7 0.00 0.00 0.00 74 1016.0
20260506140813 44 118 15.6 20.9 0.00 0.00 0.00 74 1016.0
20260506140310 44 116 20.9 21.7 0.00 0.00 0.00 75 1016.1
20260506135807 44 125 13.9 20.9 0.00 0.00 0.00 76 1016.2
20260506135305 44 127 14.8 20.0 0.00 0.00 0.00 76 1016.0